Heure de lever du soleil au 24-07-2017 / 204 ° de l'année/ semaine 3006 h 12 Heure de coucher du soleil au 24-07-2017 / 204 ° de l'année/ semaine 3021 h 41

Compte Facebook Association Météo Centre     Compte Twitter Association Météo Centre - @AssoMétéoCentre     Chaîne Youtube Association Météo Centre     Bouton contact Association Météo Centre 

Gif alerte météo

Choix de la station :
Période à consulter :
Aujourd'hui


 

Conditions météo à Abbeville - Altitude 77m

  

Date du relevé24/07/2017 à 06:00
Base des nuages300 à 600m
Visibilité15km
Nébulosité8/8 (ciel couvert)
Vent4 km/h O
Température14.8 °C
Humidité91.9 %
Point de rosée13.5 °C
Pression absolue1002.4 hPa
Pression relative1010.9 hPa
Variation pression-0.9 hPa en baisse puis stationnaire ou en baisse, puis en baisse lente
Temps présentAverse(s) de pluie durant l’heure précédente.
Temps passéNuages couvrant plus de la moitié du ciel pendant toute la période considérée.
Nuages basPrésence de Cumulus et de Stratocumulus, ayant leurs bases à des niveaux différents.


Historique météo des dernières 24 heures à Abbeville


Date - Heure Base des nuages Visibilité Nébulosité Vent Température Humidité Point rosée Pression Précipitations Temps
24/07 06:00 300 à 600m 15km 8/8 4 km/h O 14.8 °C 91.9 % 13.5 °C 1010.9 hPa
24/07 05:00 16km 6 km/h O 14.9 °C 90.7 % 13.4 °C 1011.1 hPa
24/07 04:00 19km 7 km/h O 14.8 °C 90.2 % 13.2 °C 1011.4 hPa
24/07 03:00 19km 6 km/h O 14.4 °C 90.1 % 12.8 °C 1011.9 hPa
24/07 02:00 20km 4 km/h O 14.5 °C 87.8 % 12.5 °C 1012.4 hPa
24/07 01:00 20km 6 km/h O 15.3 °C 82.9 % 12.4 °C 1012.6 hPa
24/07 00:00 20km 6 km/h O 16 °C 78.2 % 12.2 °C 1013 hPa
23/07 23:00 20km 6 km/h OSO 16.2 °C 79.3 % 12.6 °C 1013.3 hPa
23/07 22:00 20km 6 km/h O 16.4 °C 78.3 % 12.6 °C 1013.3 hPa
23/07 21:00 20km 7 km/h O 17.1 °C 74.9 % 12.6 °C 1013.5 hPa
23/07 20:00 20km 11 km/h O 17.7 °C 68.8 % 11.9 °C 1013.9 hPa
23/07 19:00 19km 11 km/h O 19.2 °C 63.9 % 12.2 °C 1013.8 hPa
23/07 18:00 20km 13 km/h O 19.1 °C 59.8 % 11.1 °C 1014.1 hPa
23/07 17:00 300 à 600m 20km 4/8 13 km/h O 19.8 °C 56.1 % 10.8 °C 1014.2 hPa
23/07 16:00 300 à 600m 40km 4/8 15 km/h O 20.2 °C 54 % 10.6 °C 1014.3 hPa
23/07 15:00 300 à 600m 30km 5/8 13 km/h O 19.7 °C 61.2 % 12 °C 1014.5 hPa
23/07 14:00 300 à 600m 25km 6/8 11 km/h O 18.6 °C 65.1 % 11.9 °C 1014.6 hPa 0.8 mm/6h
23/07 13:00 300 à 600m 8km 6/8 13 km/h O 17.1 °C 72.9 % 12.2 °C 1014.5 hPa
23/07 12:00 300 à 600m 20km 5/8 13 km/h O 17.4 °C 71.1 % 12.1 °C 1014.1 hPa
23/07 11:00 300 à 600m 20km 6/8 11 km/h O 16.5 °C 83 % 13.6 °C 1013.6 hPa
23/07 10:00 300 à 600m 10km 7/8 7 km/h OSO 15.5 °C 89 % 13.7 °C 1013.3 hPa
23/07 09:00 300 à 600m 10km 7/8 7 km/h SSO 14.8 °C 90.2 % 13.2 °C 1012.9 hPa
23/07 08:00 300 à 600m 5000m 8/8 6 km/h SSO 13.5 °C 90.1 % 11.9 °C 1012.7 hPa 1 mm/12h
23/07 07:00 600 à 1000m 20km 8/8 7 km/h SSO 13.9 °C 83.2 % 11.1 °C 1012.3 hPa
23/07 06:00 600 à 1000m 30km 7/8 7 km/h S 13.7 °C 83.8 % 11 °C 1011.9 hPa

L'association Météo Centre n'est pas responsable de la mise à jour de ces données.

Météo-Centre.fr depuis 2008
Nos informations ne doivent jamais servir à la protection des biens et des personnes. Elles n'engagent pas la responsabilité de l'association Météo Centre.
Contact - Haut de page - Partenaires - Mentions légales